sat.trackr.live / text

‹ back to catalog

STARLINK-5973

NORAD 56916 · 2023-083AS

PAYLOAD ACTIVE UNKNOWN

§ Identity

Operator
Country
US
Launch date
2023-06-12
Launch site
AFETR
Launch vehicle
Mass (kg)
RCS (m²)

Purposes: comms

External: N2YO · Heavens-Above · Gunter

§ Orbital elements

Epoch: 2026-09-20T16:53:15.125856Z

Period
94.27 min
Inclination
43.0034°
Eccentricity
0.0001130
Mean motion
15.27576160 rev/d
Perigee alt
482.3 km
Apogee alt
483.8 km
Semi-major
6,861.2 km
B*
2.6666e-6
RAAN
49.2838°
Arg perigee
262.9241°
Mean anomaly
97.1482°
Rev number
18,159

§ Raw data

STARLINK-59731 56916U 23083AS  26263.70364729 -.00000189  00000+0  26666-5 0  99992 56916  43.0034  49.2838 0001130 262.9241  97.1482 15.27576160181593

JSON: /api/v1/satellites/56916 · /tle

For live sub-satellite position, see the globe view (requires WebGL).

§ Visibility from observer

Set your observer location to see the next 7 days of passes ≥ 10°. The values pass through the URL so the page stays shareable.

No JS? Fill the form by hand. The geolocation button needs JavaScript.